EW7431 Weather Reports


time (UTC)temp
F
wind
direction
speed
knots
gust
knots
rain 1hr
in
rain 24hr
in
rain mn
in
humidity
%
barometer
mb
20260510104512 50 178 0.0 1.7 0.00 0.09 0.00 94 1012.3
20260510103010 50 211 0.0 1.7 0.00 0.09 0.00 94 1012.2
20260510101505 50 211 0.0 1.7 0.00 0.09 0.00 94 1012.6
20260510100007 50 165 0.0 0.9 0.00 0.09 0.00 94 1012.2
20260510094509 50 217 0.0 1.7 0.00 0.09 0.00 94 1012.0
20260510093020 50 151 0.0 0.9 0.00 0.09 0.00 94 1011.7
20260510091516 50 151 0.9 1.7 0.00 0.09 0.00 94 1011.7
20260510090012 50 140 0.0 0.9 0.00 0.09 0.00 94 1011.7
20260510084511 50 140 0.0 0.9 0.00 0.09 0.00 94 1011.9
20260510083008 50 140 0.0 0.9 0.00 0.09 0.00 94 1011.6
20260510081507 50 140 0.0 0.0 0.00 0.09 0.00 94 1012.0
20260510080004 50 140 0.0 1.7 0.00 0.09 0.00 94 1011.8
20260510074521 50 269 0.0 2.6 0.00 0.09 0.00 94 1012.1
20260510073015 50 140 0.9 5.2 0.00 0.09 0.00 93 1012.2
20260510071512 50 229 0.9 11.3 0.00 0.09 0.00 93 1011.8
20260510070011 50 218 0.0 0.9 0.00 0.09 0.00 93 1011.2
20260510064516 50 218 0.0 0.9 0.00 0.09 0.00 93 1011.5
20260510063010 51 140 0.0 1.7 0.00 0.09 0.00 93 1011.4
20260510061508 51 140 0.0 1.7 0.00 0.09 0.00 93 1011.7
20260510060022 51 237 0.0 2.6 0.00 0.09 0.00 93 1011.9
20260510054518 51 210 0.0 0.9 0.00 0.09 0.00 93 1011.3
20260510053015 52 210 0.0 0.0 0.00 0.09 0.00 93 1011.2
20260510051527 52 210 0.0 0.9 0.00 0.09 0.00 93 1011.3
20260510050020 52 210 0.0 0.9 0.00 0.09 0.00 93 1011.3
20260510044515 52 210 0.0 0.0 0.00 0.09 0.00 93 1011.4
20260510043012 51 210 0.0 0.9 0.00 0.09 0.00 93 1011.5
20260510041519 50 210 0.0 0.9 0.00 0.09 0.00 93 1011.6
20260510040022 50 210 0.0 0.0 0.00 0.09 0.00 92 1011.4
20260510034533 50 210 0.0 0.9 0.00 0.09 0.09 91 1011.5
20260510033024 51 210 0.0 0.9 0.00 0.09 0.09 92 1011.5
20260510031524 51 210 0.0 0.0 0.00 0.09 0.09 92 1011.5
20260510030008 51 210 0.0 1.7 0.00 0.09 0.09 91 1011.5
20260510024504 52 194 0.0 0.0 0.00 0.09 0.09 91 1011.5
20260510023012 52 194 0.0 0.9 0.00 0.09 0.09 90 1011.4
20260510021518 53 194 0.0 0.9 0.00 0.09 0.09 91 1011.3
20260510020007 53 194 0.0 0.9 0.00 0.09 0.09 90 1011.2
20260510014507 54 159 0.0 0.9 0.00 0.09 0.09 91 1011.3
20260510013006 54 150 0.0 1.7 0.00 0.09 0.09 91 1011.2
20260510011504 53 205 0.0 1.7 0.00 0.09 0.09 91 1011.1
20260510010017 54 244 0.0 0.9 0.00 0.09 0.09 89 1011.0
20260510004519 54 205 0.0 0.9 0.00 0.09 0.09 89 1010.7
20260510003014 55 128 0.0 1.7 0.00 0.09 0.09 88 1010.6
20260510001510 55 128 0.0 0.9 0.00 0.09 0.09 88 1010.3
20260510000015 56 128 0.0 1.7 0.00 0.09 0.09 87 1010.2
20260509234506 56 128 0.0 1.7 0.00 0.09 0.09 86 1010.3
20260509233022 57 121 0.0 1.7 0.00 0.09 0.09 84 1010.3
20260509231519 57 120 0.0 1.7 0.00 0.09 0.09 83 1010.3
20260509230020 57 120 0.0 1.7 0.00 0.09 0.09 81 1010.3
20260509224514 57 117 0.0 1.7 0.00 0.09 0.09 81 1010.1
20260509223012 57 117 0.0 1.7 0.00 0.09 0.09 82 1010.0
20260509221512 57 223 0.0 1.7 0.00 0.09 0.09 81 1010.3
20260509220007 57 269 0.9 3.5 0.00 0.09 0.09 83 1010.2
20260509214523 57 266 3.5 6.1 0.00 0.09 0.09 84 1010.3
20260509213020 56 281 0.0 2.6 0.00 0.09 0.09 87 1010.1
20260509211519 56 272 0.0 2.6 0.00 0.09 0.09 85 1010.4
20260509210004 56 276 1.7 4.3 0.00 0.09 0.09 86 1010.6
20260509204501 57 296 1.7 7.0 0.00 0.09 0.09 84 1010.9
20260509203008 57 277 2.6 6.1 0.00 0.09 0.09 86 1010.8
20260509201505 56 273 0.0 2.6 0.00 0.09 0.09 87 1010.7
20260509200006 55 291 0.0 1.7 0.00 0.09 0.09 87 1010.8
20260509194503 55 291 0.0 2.6 0.01 0.09 0.09 90 1011.0
20260509193011 54 255 0.0 0.9 0.03 0.09 0.09 89 1011.1
20260509191506 54 255 0.0 0.0 0.03 0.09 0.09 90 1011.3
20260509190006 54 255 0.9 2.6 0.04 0.09 0.09 89 1011.8
20260509184513 54 284 0.0 0.9 0.03 0.08 0.08 89 1012.1
20260509183008 54 284 0.0 0.9 0.01 0.06 0.06 88 1012.1
20260509181503 54 284 0.0 1.7 0.01 0.06 0.06 88 1012.3
20260509180012 54 246 0.0 0.9 0.00 0.05 0.05 87 1012.4
20260509174510 55 261 2.6 5.2 0.01 0.05 0.05 88 1012.2
20260509173008 55 288 1.7 3.5 0.03 0.05 0.05 89 1012.1
20260509171513 55 257 0.0 2.6 0.04 0.05 0.05 88 1012.1
20260509170023 55 270 0.9 2.6 0.05 0.05 0.05 87 1011.6
20260509164504 55 292 0.9 5.2 0.04 0.04 0.04 86 1011.7
20260509163025 56 267 0.9 3.5 0.02 0.02 0.02 86 1012.1
20260509161515 56 246 0.9 3.5 0.01 0.01 0.01 84 1012.5
20260509160016 56 226 0.9 5.2 0.00 0.00 0.00 82 1012.5
20260509154516 57 275 0.0 3.5 0.00 0.00 0.00 82 1012.7
20260509153010 56 335 0.0 0.9 0.00 0.00 0.00 81 1012.7
20260509151509 56 309 0.0 2.6 0.00 0.00 0.00 80 1012.7
20260509150034 56 116 0.0 1.7 0.00 0.00 0.00 80 1012.5
20260509144531 56 113 0.0 1.7 0.00 0.00 0.00 81 1012.3
20260509143024 56 119 0.0 0.9 0.00 0.00 0.00 81 1012.2
20260509141521 56 119 0.0 1.7 0.00 0.00 0.00 81 1012.2
20260509140014 55 43 0.0 1.7 0.00 0.00 0.00 81 1012.0
20260509134511 55 99 0.0 1.7 0.00 0.00 0.00 80 1012.1
20260509133026 55 87 0.0 1.7 0.00 0.00 0.00 80 1012.0
20260509131531 54 131 0.0 1.7 0.00 0.00 0.00 79 1011.8
20260509130021 54 46 0.0 1.7 0.00 0.00 0.00 80 1011.9
20260509124523 54 125 0.0 1.7 0.00 0.00 0.00 80 1012.0
20260509123016 53 139 0.0 1.7 0.00 0.00 0.00 81 1012.0
20260509121523 53 151 0.0 0.9 0.00 0.00 0.00 80 1012.1
20260509120004 53 167 0.0 0.9 0.00 0.00 0.00 81 1012.1
20260509114502 52 167 0.0 0.9 0.00 0.00 0.00 80 1012.1
20260509113006 52 167 0.0 0.9 0.00 0.00 0.00 81 1012.2
20260509111504 51 136 0.0 1.7 0.00 0.00 0.00 82 1012.0
20260509110003 51 243 0.0 1.7 0.00 0.00 0.00 85 1011.8